User: anonymous
Location: Unspecified
(0.0000°N, 0.0000°E)
Time: 11:58:50
(UTC+02:00)
Language:

Cosmos 1953 Rocket - Orbit

View from above orbital plane
View from above orbital plane
View from above satellite
View from above satellite

Ground track
Ground track

The orbit data is extracted from the following two-line orbital elements,

1 19211U 88050B   14261.50782059  .00000490  00000-0  57917-4 0  3388
2 19211 082.5256 059.9468 0022591 176.9587 241.8224 14.82454932418207
Epoch (UTC): 18 September 2014 12:11:15
Eccentricity: 0.0022591
inclination: 82.5256°
perigee height: 606 km
apogee height: 637 km
right ascension of ascending node: 59.9468°
argument of perigee: 176.9587°
revolutions per day: 14.82454932
mean anomaly at epoch: 241.8224°
orbit number at epoch: 41820

The dashed part of the orbit path shows where the satellite is in the earth's shadow,  

DLR